Flag for Guadeloupe Weather past 2 weeks in Pointe-à-Pitre, Guadeloupe

Now
81 °F

Passing clouds.


Feels Like: 85 °F
Forecast: 77 / 87 °F
Wind: 16 mph from South

Location: Le Raizet - Guadeloupe

Current Time: Oct 23, 2014 at 11:57:03 AM

Latest Report: Oct 23, 2014 at 11:04 AM


Visibility: N/A

Pressure: 29.95 "Hg

Humidity: 79%

Dew point: 73 °F

Location of Pointe-à-PitreLocation

Historic Weather in Pointe-à-Pitre — Graph

°F

Pointe-à-Pitre temperature yesterday

Maximum temperature yesterday: 88 °F (at 9:35 AM)
Minimum temperature yesterday: 73 °F (at 2:00 AM)
Average temperature yesterday: 81 °F

Past Weeks' High & Low Weather Summary

 TemperatureHumidityPressure
High90 °F (Oct 11, 12:30 PM)100% (Oct 9, 2:30 AM)30.01 "Hg (Oct 9, 2:30 AM)
Low72 °F (Oct 17, 1:00 AM)49% (Oct 15, 2:00 PM)29.74 "Hg (Oct 13, 4:00 AM)
Average80 °F78%29.90 "Hg
* Reported Oct 8 10:00 AM — Oct 23 10:30 AM, Pointe-à-Pitre, Weather by CustomWeather, © 2014

Note: Actual official high and low records may vary slightly from our data, if they occured in-between our weather recording intervals... More about our weather records

Advertising

Pointe-à-Pitre weather history for previous 24 hours

 ConditionsComfort  
Time TempWeatherWind HumidityBarometerVisibility
10:30 AM
Oct 23
84 °FPassing clouds.14 mph74%29.95 "HgN/A
9:30 AM86 °FPassing clouds.12 mph70%29.95 "HgN/A
9:16 AM86 °FPassing clouds.14 mph66%29.95 "HgN/A
8:00 AM82 °FPassing clouds.9 mph79%29.92 "HgN/A
7:30 AM79 °FPassing clouds.3 mph89%29.92 "HgN/A
7:00 AM79 °FPassing clouds.No wind84%29.92 "HgN/A
6:30 AM79 °FPassing clouds.3 mph84%29.89 "HgN/A
6:00 AM79 °FLight rain. Broken clouds.8 mph84%29.89 "HgN/A
5:30 AM77 °FPassing clouds.No wind89%29.89 "HgN/A
5:00 AM75 °FClear.No wind89%29.89 "HgN/A
4:30 AM75 °FClear.No wind89%29.89 "HgN/A
4:00 AM77 °FClear.No wind83%29.89 "HgN/A
3:30 AM79 °FClear.3 mph84%29.89 "HgN/A
3:00 AM77 °FClear.3 mph89%29.89 "HgN/A
2:30 AM79 °FClear.5 mph84%29.89 "HgN/A
2:00 AM79 °FWarm.5 mph84%29.89 "HgN/A
1:30 AM79 °FPassing clouds.3 mph84%29.89 "HgN/A
1:00 AM79 °FPassing clouds.2 mph84%29.92 "HgN/A
12:30 AM79 °FPartly cloudy.2 mph84%29.92 "HgN/A
12:00 AM79 °FPassing clouds.5 mph84%29.92 "HgN/A
11:30 PM
Oct 22
79 °FClear.3 mph84%29.92 "HgN/A
11:00 PM81 °FClear.5 mph79%29.92 "HgN/A
10:30 PM81 °FClear.3 mph79%29.92 "HgN/A
10:00 PM81 °FClear.6 mph79%29.92 "HgN/A
9:30 PM81 °FClear.5 mph79%29.95 "HgN/A
9:00 PM81 °FClear.6 mph79%29.92 "HgN/A
8:30 PM82 °FClear.6 mph74%29.92 "HgN/A
8:00 PM82 °FClear.8 mph74%29.92 "HgN/A
7:30 PM82 °FPassing clouds.7 mph74%29.89 "HgN/A
7:00 PM82 °FPassing clouds.6 mph74%29.89 "HgN/A
6:30 PM82 °FPassing clouds.7 mph74%29.89 "HgN/A
6:00 PM82 °FPassing clouds.6 mph70%29.89 "HgN/A
5:30 PM84 °FPassing clouds.8 mph66%29.89 "HgN/A
5:00 PM84 °FPartly sunny.10 mph66%29.89 "HgN/A
4:30 PM86 °FPartly sunny.12 mph59%29.86 "HgN/A
3:30 PM88 °FPartly sunny.10 mph59%29.86 "HgN/A
3:00 PM88 °FPartly sunny.13 mph59%29.86 "HgN/A
2:30 PM88 °FPartly sunny.9 mph62%29.86 "HgN/A
2:00 PM88 °FPartly sunny.10 mph62%29.89 "HgN/A
1:07 PM88 °FPartly sunny.12 mph62%29.89 "HgN/A
12:30 PM88 °FPartly sunny.9 mph62%29.89 "HgN/A
12:00 PM88 °FPartly sunny.12 mph59%29.92 "HgN/A
11:30 AM88 °FScattered clouds.10 mph62%29.92 "HgN/A
11:00 AM86 °FScattered clouds.9 mph66%29.95 "HgN/A
Weather by CustomWeather, © 2014

See weather overviewHow to use our weather pages